Location: Houston
(29.7630°N, 95.3630°W)
Time: 13:46:09
(UTC-05:00)

Saudisat 1A - Visible Passes

Search period start: 28 September 2016 00:00
Search period end: 08 October 2016 00:00
Orbit: 564 x 629 km, 64.6° (Epoch: 27 September)

Date Brightness Start Highest point End Pass type
(mag) Time Alt. Az. Time Alt. Az. Time Alt. Az.
28 Sep 8.9 06:28:03 10° SSW 06:32:23 55° ESE 06:36:49 10° NE visible
29 Sep 8.0 06:38:03 10° SSW 06:42:30 73° WNW 06:47:02 10° NNE visible
30 Sep 10.8 05:10:53 10° SSE 05:13:37 16° ESE 05:16:24 10° ENE visible
30 Sep 8.7 06:48:34 10° SW 06:52:43 36° WNW 06:56:54 10° N visible
01 Oct 9.7 05:20:45 16° SSE 05:23:34 32° ESE 05:27:35 10° NE visible
02 Oct 8.3 05:32:06 39° S 05:33:36 66° ESE 05:38:06 10° NNE visible
03 Oct 8.0 05:43:13 57° W 05:43:44 62° WNW 05:48:14 10° NNE visible
04 Oct 11.1 04:17:24 12° ENE 04:17:24 12° ENE 04:17:58 10° ENE visible
04 Oct 8.9 05:54:07 31° NW 05:54:07 31° NW 05:58:01 10° N visible
05 Oct 10.9 04:28:09 14° NE 04:28:09 14° NE 04:28:56 10° NE visible
05 Oct 9.8 06:04:51 17° NW 06:04:51 17° NW 06:07:20 10° N visible
06 Oct 10.8 04:38:44 14° NNE 04:38:44 14° NNE 04:39:20 10° NNE visible
07 Oct 10.9 04:49:13 11° NNE 04:49:13 11° NNE 04:49:23 10° NNE visible
